EST,Max TemperatureF,Mean TemperatureF,Min TemperatureF,Max Dew PointF,MeanDew PointF,Min DewpointF,Max Humidity, Mean Humidity, Min Humidity, Max Sea Level PressureIn, Mean Sea Level PressureIn, Min Sea Level PressureIn, Max VisibilityMiles, Mean VisibilityMiles, Min VisibilityMiles, Max Wind SpeedMPH, Mean Wind SpeedMPH, Max Gust SpeedMPH,PrecipitationIn, CloudCover, Events, WindDirDegrees
2011-12-1,48,42,35,32,24,18,65,50,34,30.29,30.11,29.86,10,10,10,16,7,24,0.00,0,,310
2011-12-2,51,40,30,28,25,22,75,55,36,30.48,30.34,30.26,10,10,10,9,2,,0.00,2,,276
2011-12-3,46,39,32,28,26,24,82,65,47,30.70,30.64,30.50,10,10,10,7,3,,0.00,0,,37
2011-12-4,53,42,30,42,33,25,88,76,54,30.63,30.54,30.39,10,8,0,10,2,18,0.00,2,Fog,201
2011-12-5,63,52,42,49,44,39,93,80,54,30.38,30.32,30.22,10,7,0,10,4,,0.00,1,Fog,205
2011-12-6,64,58,53,56,54,48,90,83,70,30.20,30.02,29.91,10,10,7,12,6,18,0.05,8,Rain,202
2011-12-7,59,50,42,56,46,39,94,88,85,29.90,29.81,29.52,10,7,2,12,5,,1.03,8,Rain,56
2011-12-8,44,40,35,39,29,20,89,68,41,30.29,29.75,29.33,10,9,4,25,12,43,0.72,4,Rain,292
2011-12-9,50,42,34,40,31,25,82,64,46,30.37,30.28,30.20,10,10,10,13,6,20,0.01,3,Rain,211
2011-12-10,44,37,30,40,26,15,86,61,43,30.45,30.26,30.17,10,10,7,14,5,17,0.00,2,,292
2011-12-11,37,30,24,19,16,13,78,54,36,30.63,30.58,30.47,10,10,10,8,3,,0.00,0,,238
2011-12-12,50,40,30,19,15,10,59,43,22,30.58,30.50,30.40,10,10,10,10,6,,0.00,0,,205
2011-12-13,48,37,26,27,22,18,78,61,37,30.39,30.34,30.31,10,10,10,9,3,,0.00,0,,59
2011-12-14,43,38,34,30,29,27,79,69,57,30.44,30.40,30.35,10,10,10,7,2,,0.00,7,Rain,40
2011-12-15,55,46,36,47,38,29,83,71,58,30.33,29.99,29.69,10,10,5,14,6,25,0.11,7,Rain,202
2011-12-16,53,46,39,47,33,26,83,59,39,30.07,29.88,29.62,10,10,10,18,12,32,0.00,2,Rain,265
2011-12-17,39,33,25,29,19,7,78,56,38,30.18,30.10,30.04,10,10,10,12,5,18,0.00,2,,314
2011-12-18,28,24,17,10,4,1,58,46,31,30.31,30.25,30.18,10,10,10,13,7,18,0.00,2,,352
2011-12-19,44,30,15,27,17,5,71,55,43,30.27,30.05,29.84,10,10,10,21,6,25,0.00,3,Rain,217
2011-12-20,44,35,25,32,18,9,66,49,31,30.25,30.10,29.85,10,10,10,17,8,24,0.00,2,Rain,320
2011-12-21,50,38,25,46,33,17,93,83,64,30.22,29.87,29.61,10,5,1,5,0,,0.21,8,Rain,339
2011-12-22,55,50,45,49,40,34,93,69,47,30.10,29.90,29.61,10,8,1,17,7,26,0.34,4,Rain,253
2011-12-23,43,36,30,40,32,18,93,81,56,30.20,30.00,29.92,10,9,4,16,5,25,0.79,7,Rain-Snow,346
2011-12-24,30,24,19,16,10,1,63,52,40,30.51,30.41,30.21,10,10,10,9,6,,0.00,0,,345
2011-12-25,37,27,17,30,19,9,76,69,61,30.51,30.22,29.88,10,10,10,7,2,,0.00,6,,209
2011-12-26,39,33,27,29,23,18,85,65,45,30.26,30.07,29.86,10,10,10,16,4,25,0.00,2,,320
2011-12-27,55,40,26,52,35,18,88,75,58,30.19,29.81,29.34,10,9,5,17,7,30,0.18,4,Rain,167
2011-12-28,59,44,28,54,32,10,83,63,47,29.62,29.37,29.25,10,10,10,26,13,33,0.00,4,,247
2011-12-29,34,28,23,11,1,-8,53,34,19,30.05,29.88,29.64,10,10,10,18,13,31,0.00,0,,262
2011-12-30,36,30,23,23,18,10,69,59,50,30.14,30.10,30.05,10,10,10,8,2,,0.00,7,,27
2011-12-31,37,34,32,36,33,23,100,90,66,30.08,29.91,29.83,10,3,0,7,4,,0.05,8,Fog-Rain,313